Location: Home
(42.5358°N, 72.7383°W)
Time: 20:23:36
(UTC-05:00)

A-11 Canister half - Pass Details

Date: 09 December 2021
Orbit: 1524 x 1684 km, 47.3° (Epoch: 23 January)

Event Time Altitude Azimuth Distance (km) Brightness Sun altitude
Rises 02:17:10 0° 269° (W) 4,934 - -52.6°
Reaches altitude 10° 02:20:23 10° 272° (W) 3,948 - -52.0°
Maximum altitude 02:30:32 68° 355° (N) 1,779 - -50.2°
Exits shadow 02:34:35 41° 64° (ENE) 2,264 10.0 -49.5°
Drops below altitude 10° 02:40:32 10° 78° (ENE) 3,888 11.6 -48.5°
Sets 02:43:41 0° 82° (E) 4,856 12.3 -47.9°
